Location: North Smoke Tower Site
(30.5430°N, 82.3390°W)
Time: 10:15:31
(UTC-05:00)

Cosmos 1980 Rocket - Visible Passes

Search period start: 14 December 2017 00:00
Search period end: 24 December 2017 00:00
Orbit: 827 x 852 km, 71.0° (Epoch: 14 December)

Date Brightness Start Highest point End Pass type
(mag) Time Alt. Az. Time Alt. Az. Time Alt. Az.
14 Dec 3.8 04:57:57 16° NNE 05:01:38 30° ENE 05:06:32 10° SE visible
14 Dec 3.1 06:40:41 10° NW 06:45:28 28° WSW 06:50:13 10° SSW visible
14 Dec 3.7 17:59:44 10° SE 18:03:03 16° E 18:06:22 10° ENE visible
14 Dec 2.9 19:41:02 10° SW 19:46:30 51° WNW 19:48:25 36° NNW visible
15 Dec 3.9 04:43:32 21° NNE 04:45:56 28° ENE 04:50:42 10° ESE visible
15 Dec 3.0 06:25:22 12° NW 06:29:49 31° WSW 06:34:41 10° SSW visible
15 Dec 2.8 19:25:18 10° SW 19:30:49 55° WNW 19:34:02 25° N visible
16 Dec 4.0 04:29:11 25° NE 04:30:13 26° ENE 04:34:53 10° ESE visible
16 Dec 2.9 06:11:01 19° NW 06:14:09 33° WSW 06:19:08 10° SSW visible
16 Dec 2.7 19:09:34 10° SSW 19:15:08 59° WNW 19:19:35 16° N visible
17 Dec 4.1 04:14:52 24° ENE 04:14:52 24° ENE 04:19:02 10° ESE visible
17 Dec 2.8 05:56:43 29° WNW 05:58:30 36° WSW 06:03:35 10° SSW visible
17 Dec 2.6 18:53:51 10° SSW 18:59:27 64° WNW 19:05:03 10° NNE visible
18 Dec 4.5 04:00:37 20° E 04:00:37 20° E 04:03:10 10° ESE visible
18 Dec 2.6 05:42:27 38° W 05:42:50 38° WSW 05:48:01 10° S visible
18 Dec 2.5 18:38:08 10° SSW 18:43:46 69° WNW 18:49:27 10° NNE visible
19 Dec 4.9 03:46:22 13° ESE 03:46:22 13° ESE 03:47:17 10° ESE visible
19 Dec 2.8 05:28:12 38° SW 05:28:12 38° SW 05:32:26 10° S visible
19 Dec 2.4 18:22:26 10° SSW 18:28:05 75° WNW 18:33:47 10° NNE visible
20 Dec 3.4 05:13:57 29° SSW 05:13:57 29° SSW 05:16:50 10° S visible
20 Dec 2.4 18:06:44 10° SSW 18:12:24 80° WNW 18:18:07 10° NNE visible
21 Dec 4.0 04:59:41 19° S 04:59:41 19° S 05:01:15 10° S visible
21 Dec 2.3 17:51:04 10° SSW 17:56:43 86° WNW 18:02:27 10° NNE visible
22 Dec 4.6 04:45:24 11° S 04:45:24 11° S 04:45:38 10° S visible
22 Dec 5.0 19:25:01 10° WNW 19:25:44 10° NW 19:26:28 10° NW visible
23 Dec 4.9 19:08:23 10° WNW 19:10:00 11° NW 19:11:38 10° NW visible
